1496937600.36,28483,20.0,74114.0,4.57,-4.13,-3.55,0,*7B
1496937601.55,28484,20.0,74118.8,4.57,-3.79,-3.31,0,*75
1496937602.77,28485,20.0,74116.8,4.57,-3.47,-3.07,0,*7C
1496937603.97,28486,20.0,74118.3,4.57,-3.55,-3.23,0,*7A
1496937605.21,28487,20.0,74116.8,4.57,-3.59,-3.43,0,*71
1496937606.44,28488,20.0,74116.3,4.57,-3.67,-3.55,0,*74
1496937607.64,28489,20.0,74116.8,4.55,-3.23,-3.23,0,*76
1496937608.85,28490,20.0,74118.5,4.55,-3.19,-3.19,0,*7E
1496937610.03,28491,20.0,74116.0,4.57,-3.15,-3.23,0,*78
1496937611.22,28492,20.0,74116.5,4.57,-3.07,-3.19,0,*71
1496937612.45,28493,20.0,74118.0,4.55,-3.19,-3.51,0,*71
1496937613.67,28494,20.0,74118.3,4.53,-3.63,-4.09,0,*77
1496937614.87,28495,20.0,74116.5,4.53,-3.75,-4.21,0,*7B
1496937616.08,28496,20.0,74120.8,4.53,-3.75,-4.21,0,*78
1496937617.29,28497,20.0,74116.0,4.53,-3.55,-4.09,0,*71
1496937618.51,28498,20.0,74116.3,4.53,-3.51,-4.05,0,*76
1496937619.71,28499,20.0,74118.5,4.53,-3.79,-4.41,0,*7D
1496937620.93,28500,20.0,74120.5,4.51,-3.79,-4.33,0,*7B
1496937622.18,28501,20.0,74116.0,4.51,-3.51,-4.21,0,*73
1496937623.4,28502,20.0,74116.3,4.51,-3.75,-4.33,0,*75
1496937624.6,28503,20.0,74116.8,4.49,-3.83,-4.57,0,*76
1496937625.79,28504,20.0,74118.3,4.49,-4.05,-4.61,0,*7D
1496937627.02,28505,20.0,74116.5,4.47,-3.83,-4.57,0,*7E
1496937628.22,28506,20.0,74116.3,4.45,-3.95,-4.61,0,*7D
1496937629.42,28507,20.0,74116.5,4.45,-3.83,-4.49,0,*71
1496937630.65,28508,20.0,74118.5,4.47,-3.55,-4.33,0,*7A
1496937631.87,28509,20.0,74118.3,4.47,-3.35,-4.09,0,*74
1496937633.09,28510,20.0,74116.3,4.47,-3.35,-4.09,0,*7C
1496937634.3,28511,20.0,74116.3,4.45,-3.35,-4.01,0,*77
1496937635.52,28512,20.0,74116.8,4.45,-3.51,-4.17,0,*71
1496937636.74,28513,20.0,74118.3,4.45,-3.59,-4.29,0,*75
1496937637.98,28514,20.0,74116.5,4.47,-3.59,-4.13,0,*79
1496937639.23,28515,20.0,74116.0,4.47,-3.67,-4.21,0,*74
1496937640.45,28516,20.0,74116.3,4.47,-3.95,-4.37,0,*7D
1496937641.69,28517,20.0,74116.5,4.47,-3.71,-4.09,0,*7B
1496937642.89,28518,20.0,74116.5,4.45,-3.75,-4.09,0,*72
1496937644.1,28519,20.0,74116.3,4.45,-3.71,-4.09,0,*77
1496937645.3,28520,20.0,74116.5,4.45,-3.83,-4.13,0,*7B
1496937646.51,28521,20.0,74112.5,4.45,-3.59,-3.75,0,*7A
1496937647.75,28522,20.0,74116.0,4.45,-3.47,-3.71,0,*72
1496937649.0,28523,20.0,74116.0,4.47,-3.43,-3.55,0,*73
1496937650.24,28524,20.0,74112.5,4.47,-3.35,-3.47,0,*76
1496937651.45,28525,20.0,74114.0,4.45,-3.39,-3.63,0,*7F
1496937652.68,28526,20.0,74116.5,4.47,-3.07,-3.43,0,*71
1496937653.87,28527,20.0,74116.8,4.45,-3.07,-3.35,0,*73
1496937655.08,28528,20.0,74118.0,4.47,-2.95,-3.31,0,*70
1496937656.33,28529,20.0,74116.3,4.47,-3.15,-3.59,0,*76
1496937657.54,28530,20.0,74118.0,4.49,-3.15,-3.67,0,*7D
1496937658.74,28531,20.0,74114.5,4.49,-3.03,-3.71,0,*7C
1496937659.93,28532,20.0,74118.3,4.49,-3.03,-3.79,0,*77
1496937661.13,28533,20.0,74116.8,4.49,-3.35,-4.37,0,*7E
1496937662.35,28534,20.0,74118.0,4.47,-3.19,-4.37,0,*79
1496937663.57,28535,20.0,74116.5,4.47,-3.27,-4.49,0,*7C
1496937664.79,28536,20.0,74116.5,4.47,-3.15,-4.49,0,*7E
1496937666.0,28537,20.0,74112.5,4.45,-3.19,-4.73,0,*78
1496937667.24,28538,20.0,74112.0,4.47,-3.15,-4.73,0,*79
1496937668.45,28539,20.0,74112.8,4.45,-3.07,-4.77,0,*7D
1496937669.66,28540,20.0,74118.0,4.45,-2.83,-4.73,0,*7A
1496937670.85,28541,20.0,74116.0,4.45,-2.87,-4.99,0,*7B
1496937672.09,28542,20.0,74116.8,4.47,-2.91,-5.23,0,*7D
1496937673.31,28543,20.0,74116.5,4.45,-2.87,-5.31,0,*7A
1496937674.53,28544,20.0,74116.8,4.47,-2.95,-5.47,0,*7D
1496937675.75,28545,20.0,74116.5,4.45,-2.99,-5.69,0,*7E
1496937676.98,28546,20.0,74116.3,4.47,-2.91,-5.65,0,*7B
1496937678.22,28547,20.0,74114.3,4.47,-2.83,-5.81,0,*73
1496937679.44,28548,20.0,74116.0,4.45,-2.87,-5.85,0,*7E
1496937680.66,28549,20.0,74112.8,4.45,-3.11,-6.19,0,*77
1496937681.85,28550,20.0,74118.3,4.45,-3.19,-6.35,0,*79
1496937683.04,28551,20.0,74114.8,4.45,-3.35,-6.55,0,*70
1496937684.25,28552,20.0,74116.5,4.43,-3.19,-6.43,0,*7C
1496937685.47,28553,20.0,74118.0,4.43,-3.19,-6.35,0,*7C
1496937686.68,28554,20.0,74118.3,4.43,-3.19,-6.43,0,*7A
1496937687.89,28555,20.0,74114.8,4.41,-2.99,-6.23,0,*76
1496937689.13,28556,20.0,74116.8,4.43,-2.99,-6.19,0,*7E
1496937690.34,28557,20.0,74114.0,4.43,-3.31,-6.47,0,*77
1496937691.56,28558,20.0,74116.5,4.41,-3.43,-6.51,0,*78
1496937692.77,28559,20.0,74116.0,4.39,-3.15,-6.13,0,*73
1496937693.96,28560,20.0,74116.0,4.41,-3.11,-6.01,0,*71
1496937695.2,28561,20.0,74118.3,4.41,-2.75,-5.61,0,*76
1496937696.44,28562,20.0,74112.3,4.41,-2.75,-5.61,0,*75
1496937697.63,28563,20.0,74118.0,4.41,-3.35,-6.09,0,*7C
1496937698.88,28564,20.0,74116.3,4.39,-3.59,-6.31,0,*75
1496937700.14,28565,20.0,74114.5,4.39,-3.67,-6.27,0,*7E
1496937701.4,28566,20.0,74112.5,4.39,-3.43,-5.89,0,*7C
1496937702.64,28567,20.0,74114.0,4.39,-3.27,-5.73,0,*7A
1496937703.91,28568,20.0,74112.8,4.35,-3.47,-5.89,0,*7A
1496937705.17,28569,20.0,74112.8,4.35,-3.55,-5.77,0,*79
1496937706.44,28570,20.0,74112.0,4.35,-3.59,-5.85,0,*70
1496937707.68,28571,20.0,74112.0,4.35,-3.55,-5.51,0,*74
1496937708.92,28572,20.0,74116.0,4.35,-3.67,-5.47,0,*71
1496937710.15,28573,20.0,74110.3,4.35,-3.55,-5.39,0,*78
1496937711.42,28574,20.0,74112.8,4.35,-3.55,-5.23,0,*74
1496937712.69,28575,20.0,74114.0,4.35,-3.55,-5.15,0,*70
1496937713.94,28576,20.0,74114.0,4.35,-3.83,-5.23,0,*7D
1496937715.17,28577,20.0,74112.8,4.33,-3.95,-5.27,0,*79
1496937716.43,28578,20.0,74108.8,4.31,-3.75,-5.03,0,*7C
1496937717.66,28579,20.0,74112.8,4.33,-3.83,-4.85,0,*79
1496937718.88,28580,20.0,74114.0,4.33,-3.71,-4.65,0,*7C
1496937720.12,28581,20.0,74114.3,4.31,-3.59,-4.41,0,*73
1496937721.35,28582,20.0,74108.8,4.31,-3.87,-4.65,0,*75
1496937722.54,28583,20.0,74112.5,4.33,-3.87,-4.53,0,*73
1496937723.76,28584,20.0,74110.3,4.35,-4.05,-4.49,0,*74
1496937725.0,28585,20.0,74108.8,4.31,-4.25,-4.73,0,*7A
1496937726.24,28586,20.0,74110.8,4.31,-3.83,-4.21,0,*75
1496937727.48,28587,20.0,74114.8,4.31,-3.59,-3.83,0,*7C
1496937728.74,28588,20.0,74110.5,4.31,-3.59,-3.71,0,*7E
1496937729.99,28589,20.0,74114.8,4.31,-3.63,-3.75,0,*72
1496937731.21,28590,20.0,74110.5,4.31,-3.87,-3.95,0,*7E
1496937732.46,28591,20.0,74112.3,4.31,-4.01,-3.87,0,*75
1496937733.67,28592,20.0,74110.0,4.31,-3.87,-3.83,0,*7B
1496937734.89,28593,20.0,74112.3,4.31,-3.87,-3.75,0,*73
1496937736.17,28594,20.0,74112.5,4.31,-4.01,-4.01,0,*79
1496937737.42,28595,20.0,74112.0,4.31,-4.01,-3.87,0,*71
1496937738.63,28596,20.0,74110.8,4.33,-3.75,-3.71,0,*7D
1496937739.83,28597,20.0,74110.5,4.33,-3.75,-3.75,0,*78
1496937741.08,28598,20.0,74112.3,4.31,-4.01,-3.87,0,*7C
1496937742.3,28599,20.0,74116.3,4.31,-4.25,-4.09,0,*7A
1496937743.52,28600,20.0,74116.5,4.31,-4.37,-4.21,0,*70
1496937744.74,28601,20.0,74114.3,4.31,-4.41,-4.29,0,*78
1496937745.93,28602,20.0,74114.3,4.33,-4.41,-4.25,0,*75
1496937747.17,28603,20.0,74116.5,4.31,-4.73,-4.49,0,*7D
1496937748.41,28604,20.0,74114.5,4.31,-4.89,-4.65,0,*71
1496937749.66,28605,20.0,74112.0,4.31,-5.15,-4.99,0,*77
1496937750.9,28606,20.0,74114.8,4.31,-5.19,-4.99,0,*78
1496937752.15,28607,20.0,74114.8,4.29,-5.31,-5.23,0,*7A
1496937753.4,28608,20.0,74112.3,4.29,-5.23,-5.07,0,*70
1496937754.63,28609,20.0,74112.8,4.29,-5.35,-5.07,0,*76
1496937755.83,28610,20.0,74114.5,4.29,-5.55,-5.35,0,*79
1496937757.07,28611,20.0,74118.0,4.31,-5.69,-5.43,0,*7F
1496937758.31,28612,20.0,74114.5,4.31,-6.05,-5.81,0,*7B
1496937759.55,28613,20.0,74110.5,4.29,-5.93,-5.73,0,*72
1496937760.76,28614,20.0,74112.3,4.27,-6.63,-6.43,0,*77
1496937761.95,28615,20.0,74114.8,4.27,-6.77,-6.59,0,*78
1496937763.13,28616,20.0,74110.8,4.27,-6.81,-6.55,0,*7E
1496937764.31,28617,20.0,74114.0,4.27,-6.89,-6.69,0,*78
1496937765.55,28618,20.0,74112.5,4.23,-7.01,-6.97,0,*73
1496937766.76,28619,20.0,74112.8,4.23,-7.27,-7.23,0,*78
1496937767.97,28620,20.0,74114.5,4.23,-7.49,-7.39,0,*71
1496937769.19,28621,20.0,74112.0,4.23,-7.05,-7.11,0,*72
1496937770.45,28622,20.0,74118.3,4.25,-7.61,-7.73,0,*71
1496937771.69,28623,20.0,74118.3,4.23,-7.65,-7.91,0,*7E
1496937772.9,28624,20.0,74112.5,4.25,-7.87,-8.25,0,*73
1496937774.1,28625,20.0,74112.5,4.21,-8.17,-8.55,0,*77
1496937775.34,28626,20.0,74118.3,4.21,-8.45,-9.11,0,*72
1496937776.55,28627,20.0,74118.3,4.19,-8.51,-9.19,0,*75
1496937777.77,28628,20.0,74116.5,4.21,-8.55,-9.23,0,*7C
1496937778.98,28629,20.0,74118.3,4.19,-8.67,-9.45,0,*77
1496937780.17,28630,20.0,74116.5,4.19,-9.05,-9.75,0,*79
1496937781.36,28631,20.0,74112.8,4.19,-9.19,-9.97,0,*79
1496937782.61,28632,20.0,74116.8,4.21,-9.49,-10.09,0,*4B
1496937783.85,28633,20.0,74116.0,4.21,-9.57,-10.19,0,*44
1496937785.08,28634,20.0,74112.8,4.21,-10.35,-10.93,0,*7D
1496937786.28,28635,20.0,74114.0,4.19,-10.97,-11.41,0,*71
1496937787.57,28636,20.0,74116.5,4.21,-11.33,-11.63,0,*76
1496937788.85,28637,20.0,74116.3,4.17,-12.07,-12.35,0,*76
1496937790.1,28638,20.0,74114.8,4.17,-12.21,-12.15,0,*7F
1496937791.38,28639,20.0,74116.3,4.17,-12.65,-12.61,0,*7D
1496937792.63,28640,20.0,74112.5,4.17,-12.65,-12.39,0,*7E
1496937793.89,28641,20.0,74116.3,4.17,-13.23,-12.75,0,*74
1496937795.15,28642,20.0,74116.0,4.13,-13.51,-12.83,0,*7F
1496937796.38,28643,20.0,74116.0,4.17,-14.11,-13.23,0,*72
1496937797.64,28644,20.0,74118.3,4.13,-14.97,-13.83,0,*75
1496937798.88,28645,20.0,74118.5,4.13,-14.97,-13.65,0,*7C
1496937800.15,28646,20.0,74116.3,4.13,-15.39,-13.83,0,*72
1496937801.37,28647,20.0,74116.5,4.13,-15.99,-14.29,0,*7E
1496937802.62,28648,20.0,74114.3,4.13,-16.31,-14.37,0,*7F
1496937803.84,28649,20.0,74116.0,4.11,-16.17,-14.11,0,*7C
1496937805.06,28650,20.0,74112.3,4.09,-16.59,-14.11,0,*77
1496937806.26,28651,20.0,74116.3,4.11,-16.93,-14.33,0,*79
1496937807.51,28652,20.0,74112.5,4.09,-17.11,-14.19,0,*70
1496937808.76,28653,20.0,74114.5,4.09,-17.55,-14.33,0,*79
1496937809.99,28654,20.0,74116.0,4.09,-17.87,-14.33,0,*71
1496937811.22,28655,20.0,74116.5,4.09,-18.41,-14.61,0,*72
1496937812.49,28656,20.0,74114.3,4.09,-18.55,-14.55,0,*73
1496937813.72,28657,20.0,74116.0,4.05,-18.65,-14.33,0,*7D
1496937814.99,28658,20.0,74114.0,4.05,-19.13,-14.51,0,*76
1496937816.26,28659,20.0,74118.5,4.05,-19.41,-14.51,0,*70
1496937817.49,28660,20.0,74116.8,4.07,-19.91,-14.75,0,*73
1496937818.72,28661,20.0,74114.3,4.07,-20.43,-15.01,0,*75
1496937819.98,28662,20.0,74118.3,4.05,-20.43,-14.51,0,*70
1496937821.18,28663,20.0,74114.3,4.07,-20.43,-14.23,0,*76
1496937822.41,28664,20.0,74112.8,4.05,-20.63,-14.19,0,*78
1496937823.69,28665,20.0,74114.0,4.05,-21.27,-14.51,0,*74
1496937824.89,28666,20.0,74116.0,4.03,-21.73,-14.69,0,*7B
1496937826.11,28667,20.0,74118.5,4.03,-21.57,-14.19,0,*7B
1496937827.36,28668,20.0,74116.0,4.01,-21.83,-14.23,0,*76
1496937828.61,28669,20.0,74116.3,4.01,-21.83,-14.11,0,*76
1496937829.85,28670,20.0,74116.3,4.01,-22.03,-13.87,0,*7D
1496937831.08,28671,20.0,74114.5,3.99,-21.67,-13.43,0,*73
1496937832.33,28672,20.0,74116.3,3.97,-21.97,-13.51,0,*72
1496937833.56,28673,20.0,74112.8,3.99,-22.47,-13.69,0,*78
1496937834.84,28674,20.0,74120.5,3.97,-22.47,-13.61,0,*79
1496937836.09,28675,20.0,74120.3,3.95,-22.53,-13.37,0,*7C
1496937837.33,28676,20.0,74116.8,3.93,-22.73,-13.37,0,*7B
1496937838.57,28677,20.0,74116.0,3.95,-23.03,-13.73,0,*7A
1496937839.77,28678,20.0,74114.0,3.93,-23.09,-13.43,0,*7A
1496937841.01,28679,20.0,74118.0,3.93,-23.19,-13.33,0,*7D
1496937842.27,28680,20.0,74118.8,3.87,-22.57,-12.83,0,*7F
1496937843.48,28681,20.0,74118.5,3.87,-22.87,-12.97,0,*76
1496937844.72,28682,20.0,74116.5,3.89,-22.77,-12.89,0,*7B
1496937845.97,28683,20.0,74116.8,3.87,-22.63,-12.71,0,*76
1496937847.22,28684,20.0,74116.8,3.83,-22.93,-12.79,0,*72
1496937848.44,28685,20.0,74112.8,3.83,-23.13,-12.89,0,*75
1496937849.67,28686,20.0,74114.0,3.83,-23.13,-12.93,0,*7D
1496937850.89,28687,20.0,74110.0,3.79,-22.63,-12.43,0,*72
1496937852.1,28688,20.0,74114.8,3.81,-22.03,-11.77,0,*78
1496937853.35,28689,20.0,74112.5,3.79,-21.39,-11.29,0,*7F
1496937854.57,28690,20.0,74112.3,3.79,-21.39,-11.15,0,*78
1496937855.85,28691,20.0,74112.8,3.79,-21.23,-11.07,0,*71
1496937857.1,28692,20.0,74114.5,3.79,-21.03,-10.93,0,*7C
1496937858.33,28693,20.0,74116.0,3.79,-21.13,-10.89,0,*77
1496937859.55,28694,20.0,74112.3,3.77,-21.03,-10.85,0,*73
1496937860.8,28695,20.0,74112.0,3.79,-20.89,-10.75,0,*70
1496937862.06,28696,20.0,74112.8,3.77,-20.83,-10.63,0,*70
1496937863.3,28697,20.0,74116.8,3.75,-20.79,-10.49,0,*7E
1496937864.5,28698,20.0,74114.3,3.77,-20.73,-10.45,0,*75
1496937865.77,28699,20.0,74112.0,3.75,-20.79,-10.41,0,*78
1496937866.99,28700,20.0,74114.3,3.75,-20.73,-10.23,0,*77
1496937868.24,28701,20.0,74112.8,3.75,-20.49,-10.05,0,*7B
1496937869.47,28702,20.0,74112.0,3.75,-20.35,-9.97,0,*40
1496937870.69,28703,20.0,74112.8,3.75,-20.25,-9.97,0,*40
1496937871.9,28704,20.0,74112.0,3.75,-20.29,-9.93,0,*4F
1496937873.08,28705,20.0,74114.3,3.73,-20.29,-9.79,0,*4C
1496937874.33,28706,20.0,74118.5,3.71,-20.19,-9.75,0,*42
1496937875.52,28707,20.0,74116.5,3.73,-20.09,-9.71,0,*44
1496937876.74,28708,20.0,74116.8,3.73,-19.99,-9.53,0,*48
1496937877.94,28709,20.0,74116.3,3.73,-19.95,-9.31,0,*41
1496937879.18,28710,20.0,74116.3,3.71,-19.91,-9.45,0,*4C
1496937880.4,28711,20.0,74112.8,3.71,-19.75,-9.05,0,*43
1496937881.66,28712,20.0,74118.8,3.71,-19.41,-8.81,0,*4A
1496937882.91,28713,20.0,74118.0,3.67,-19.27,-8.67,0,*44
1496937884.17,28714,20.0,74116.5,3.67,-19.27,-8.45,0,*43
1496937885.39,28715,20.0,74116.0,3.67,-18.99,-8.25,0,*40
1496937886.67,28716,20.0,74116.0,3.71,-18.93,-8.07,0,*4E
1496937887.89,28717,20.0,74116.0,3.71,-18.79,-7.87,0,*4C
1496937889.14,28718,20.0,74116.3,3.71,-19.07,-7.95,0,*48
1496937890.36,28719,20.0,74116.0,3.65,-18.83,-7.65,0,*4E
1496937891.61,28720,20.0,74118.3,3.67,-18.55,-7.49,0,*43
1496937892.83,28721,20.0,74114.8,3.65,-18.11,-6.97,0,*42
1496937894.03,28722,20.0,74112.5,3.65,-17.83,-6.69,0,*44
1496937895.27,28723,20.0,74112.0,3.67,-17.55,-6.39,0,*49
1496937896.49,28724,20.0,74116.3,3.65,-17.63,-6.39,0,*49
1496937897.71,28725,20.0,74108.8,3.65,-17.21,-6.01,0,*45
1496937898.94,28726,20.0,74114.3,3.65,-16.79,-5.61,0,*4F
1496937900.17,28727,20.0,74114.3,3.67,-16.45,-5.35,0,*42
1496937901.42,28728,20.0,74114.0,3.65,-16.17,-5.15,0,*4A
1496937902.67,28729,20.0,74112.8,3.65,-15.85,-4.85,0,*4B
1496937903.88,28730,20.0,74116.0,3.65,-15.53,-4.61,0,*42
1496937905.1,28731,20.0,74116.0,3.67,-15.15,-4.45,0,*45
1496937906.31,28732,20.0,74114.3,3.67,-14.69,-4.09,0,*44
1496937907.51,28733,20.0,74112.8,3.65,-14.37,-3.79,0,*4C
1496937908.72,28734,20.0,74110.8,3.65,-14.15,-3.79,0,*4B
1496937909.96,28735,20.0,74114.5,3.65,-14.01,-3.79,0,*4F
1496937911.17,28736,20.0,74118.5,3.63,-13.69,-3.59,0,*41
1496937912.39,28737,20.0,74116.0,3.63,-13.93,-4.01,0,*4F
1496937913.63,28738,20.0,74116.5,3.61,-13.79,-3.95,0,*4C
1496937914.87,28739,20.0,74116.0,3.63,-13.01,-3.51,0,*48
1496937916.13,28740,20.0,74112.3,3.61,-13.01,-3.71,0,*46
1496937917.37,28741,20.0,74114.3,3.59,-12.75,-3.63,0,*4D
1496937918.59,28742,20.0,74112.3,3.59,-12.35,-3.35,0,*49
1496937919.84,28743,20.0,74110.3,3.57,-11.85,-3.11,0,*48
1496937921.05,28744,20.0,74112.8,3.59,-11.55,-3.23,0,*4D
1496937922.3,28745,20.0,74114.8,3.57,-11.29,-3.15,0,*4C
1496937923.55,28746,20.0,74112.0,3.57,-10.75,-2.83,0,*49
1496937924.77,28747,20.0,74114.5,3.55,-10.71,-3.03,0,*47
1496937926.02,28748,20.0,74112.5,3.53,-10.67,-3.19,0,*42
1496937927.25,28749,20.0,74114.3,3.53,-10.19,-2.95,0,*4F
1496937928.47,28750,20.0,74112.0,3.49,-10.45,-3.35,0,*4E
1496937929.69,28751,20.0,74110.3,3.53,-10.09,-3.19,0,*42
1496937930.9,28752,20.0,74114.0,3.49,-10.01,-3.23,0,*4B
1496937932.14,28753,20.0,74114.5,3.49,-9.45,-2.79,0,*7C
1496937933.39,28754,20.0,74114.5,3.49,-9.19,-2.71,0,*7A
1496937934.61,28755,20.0,74112.0,3.49,-9.05,-2.79,0,*7E
1496937935.86,28756,20.0,74112.8,3.45,-8.85,-2.63,0,*73
1496937937.11,28757,20.0,74112.0,3.49,-8.63,-2.51,0,*77
1496937938.36,28758,20.0,74112.8,3.45,-8.55,-2.55,0,*75
1496937939.61,28759,20.0,74112.3,3.45,-8.41,-2.55,0,*71
1496937940.88,28760,20.0,74114.3,3.45,-8.51,-2.63,0,*7F
1496937942.12,28761,20.0,74112.3,3.45,-8.29,-2.55,0,*74
1496937943.36,28762,20.0,74112.0,3.45,-8.29,-2.63,0,*72
1496937944.61,28763,20.0,74114.5,3.45,-8.29,-2.67,0,*77
1496937945.85,28764,20.0,74116.0,3.43,-7.91,-2.51,0,*7F
1496937947.13,28765,20.0,74112.8,3.41,-8.07,-2.71,0,*7E
1496937948.37,28766,20.0,74114.3,3.41,-7.87,-2.55,0,*7C
1496937949.62,28767,20.0,74114.5,3.41,-7.65,-2.35,0,*77
1496937950.84,28768,20.0,74118.0,3.39,-7.73,-2.43,0,*71
1496937952.02,28769,20.0,74112.5,3.39,-7.53,-2.43,0,*72
1496937953.24,28770,20.0,74114.3,3.39,-7.27,-2.31,0,*7C
1496937954.43,28771,20.0,74112.5,3.39,-7.23,-2.35,0,*7D
1496937955.65,28772,20.0,74112.3,3.39,-6.97,-2.19,0,*7E
1496937956.87,28773,20.0,74112.8,3.39,-6.97,-2.23,0,*76
1496937958.09,28774,20.0,74116.0,3.39,-6.93,-2.19,0,*7C
1496937959.3,28775,20.0,74112.8,3.39,-6.69,-2.07,0,*77
1496937960.54,28776,20.0,74112.8,3.41,-6.73,-2.11,0,*77
1496937961.79,28777,20.0,74114.3,3.37,-6.59,-2.11,0,*7F
1496937963.06,28778,20.0,74112.0,3.37,-6.23,-1.87,0,*71
1496937964.3,28779,20.0,74114.3,3.37,-6.39,-2.07,0,*70
1496937965.52,28780,20.0,74112.0,3.37,-6.59,-2.35,0,*71
1496937966.74,28781,20.0,74114.8,3.37,-6.59,-2.39,0,*7C
1496937967.96,28782,20.0,74112.0,3.37,-6.35,-2.23,0,*7E
1496937969.2,28783,20.0,74114.0,3.35,-6.23,-2.11,0,*7B
1496937970.45,28784,20.0,74112.0,3.35,-6.19,-2.11,0,*75
1496937971.7,28785,20.0,74118.3,3.35,-5.85,-2.07,0,*75
1496937972.94,28786,20.0,74110.8,3.35,-5.81,-1.95,0,*7A
1496937974.13,28787,20.0,74114.5,3.35,-5.43,-1.75,0,*7B
1496937975.38,28788,20.0,74112.5,3.33,-5.31,-1.79,0,*7B
1496937976.63,28789,20.0,74112.5,3.33,-5.19,-1.67,0,*7F
1496937977.84,28790,20.0,74112.8,3.33,-4.99,-1.75,0,*7D
1496937979.03,28791,20.0,74112.5,3.35,-4.65,-1.63,0,*7E
1496937980.23,28792,20.0,74112.8,3.35,-4.57,-1.59,0,*75
1496937981.44,28793,20.0,74114.8,3.33,-4.45,-1.51,0,*79
1496937982.63,28794,20.0,74114.0,3.35,-4.05,-1.29,0,*73
1496937983.83,28795,20.0,74118.5,3.35,-3.91,-1.29,0,*78
1496937985.09,28796,20.0,74112.0,3.35,-4.01,-1.39,0,*74
1496937986.33,28797,20.0,74112.3,3.37,-3.87,-1.35,0,*72
1496937987.58,28798,20.0,74112.8,3.37,-3.71,-1.21,0,*71
1496937988.79,28799,20.0,74118.3,3.35,-3.39,-1.09,0,*74
1496937990.01,28800,20.0,74114.5,3.35,-3.39,-1.01,0,*73
1496937991.23,28801,20.0,74114.0,3.35,-3.35,-1.01,0,*7E
1496937992.49,28802,20.0,74116.8,3.37,-3.47,-1.13,0,*79
1496937993.75,28803,20.0,74114.5,3.37,-3.75,-1.47,0,*78
1496937995.0,28804,20.0,74114.8,3.37,-3.75,-1.47,0,*7F
1496937996.22,28805,20.0,74112.3,3.37,-3.35,-1.21,0,*7A
1496937997.41,28806,20.0,74110.3,3.39,-3.35,-1.33,0,*74
1496937998.63,28807,20.0,74114.3,3.39,-3.55,-1.55,0,*73
1496937999.87,28808,20.0,74110.0,3.39,-3.47,-1.47,0,*7C
1496938001.09,28809,20.0,74114.5,3.39,-3.35,-1.35,0,*7D
1496938002.32,28810,20.0,74112.5,3.37,-2.83,-0.89,0,*41
1496938003.52,28811,20.0,74112.5,3.39,-2.79,-0.93,0,*40
1496938004.75,28812,20.0,74112.5,3.39,-2.67,-0.85,0,*4B
1496938005.98,28813,20.0,74114.5,3.39,-2.67,-0.85,0,*4A
1496938007.24,28814,20.0,74112.0,3.41,-2.67,-0.93,0,*45
1496938008.42,28815,20.0,74112.0,3.39,-2.35,-0.69,0,*49
1496938009.64,28816,20.0,74110.3,3.41,-2.43,-0.73,0,*4F
1496938010.82,28817,20.0,74112.5,3.43,-2.31,-0.53,0,*4B
1496938012.0,28818,20.0,74112.5,3.43,-2.19,-0.45,0,*49
1496938013.24,28819,20.0,74114.5,3.45,-2.07,-0.45,0,*41
1496938014.48,28820,20.0,74112.3,3.45,-1.99,-0.29,0,*45
1496938015.72,28821,20.0,74114.8,3.45,-2.07,-0.45,0,*4A
1496938016.96,28822,20.0,74116.0,3.45,-2.07,-0.57,0,*4A
1496938018.17,28823,20.0,74114.0,3.45,-2.27,-0.81,0,*42
1496938019.38,28824,20.0,74114.5,3.49,-2.15,-0.77,0,*41
1496938020.62,28825,20.0,74112.0,3.49,-2.03,-0.65,0,*44
1496938021.85,28826,20.0,74114.3,3.49,-1.95,-0.65,0,*4B
1496938023.06,28827,20.0,74114.8,3.51,-1.95,-0.81,0,*49
1496938024.3,28828,20.0,74114.0,3.51,-1.91,-0.85,0,*46
1496938025.5,28829,20.0,74116.3,3.51,-1.79,-0.85,0,*41
1496938026.69,28830,20.0,74116.0,3.51,-1.55,-0.73,0,*4E
1496938027.87,28831,20.0,74116.5,3.51,-1.59,-0.81,0,*4E
1496938029.06,28832,20.0,74114.8,3.51,-1.55,-0.73,0,*4C
1496938030.27,28833,20.0,74112.8,3.51,-1.55,-0.85,0,*44
1496938031.48,28834,20.0,74116.0,3.51,-1.55,-0.93,0,*44
1496938032.71,28835,20.0,74112.0,3.51,-1.35,-0.97,0,*47
1496938033.95,28836,20.0,74114.5,3.53,-1.33,-0.93,0,*44
1496938035.18,28837,20.0,74116.5,3.55,-1.09,-0.93,0,*4A
1496938036.42,28838,20.0,74118.5,3.53,-1.21,-1.09,0,*7B
1496938037.62,28839,20.0,74116.8,3.55,-1.33,-1.21,0,*75
1496938038.85,28840,20.0,74114.3,3.55,-0.93,-1.01,0,*42
1496938040.06,28841,20.0,74114.8,3.55,-0.81,-0.93,0,*7A
1496938041.26,28842,20.0,74112.5,3.55,-0.69,-0.93,0,*7F
1496938042.47,28843,20.0,74112.8,3.55,-0.65,-0.89,0,*79
1496938043.7,28844,20.0,74116.0,3.57,-0.41,-0.89,0,*7A
1496938044.9,28845,20.0,74112.0,3.59,-0.53,-1.13,0,*44
1496938046.08,28846,20.0,74114.3,3.59,-0.61,-1.29,0,*4F
1496938047.27,28847,20.0,74114.5,3.63,-0.81,-1.55,0,*42
1496938048.48,28848,20.0,74112.8,3.63,-0.85,-1.79,0,*47
1496938049.72,28849,20.0,74114.5,3.63,-0.97,-2.07,0,*4F
1496938050.91,28850,20.0,74114.5,3.63,-1.21,-2.43,0,*7B
1496938052.13,28851,20.0,74116.0,3.65,-1.21,-2.59,0,*77
1496938053.36,28852,20.0,74116.0,3.65,-1.17,-2.71,0,*7B
1496938054.56,28853,20.0,74114.3,3.65,-1.17,-2.91,0,*74
1496938055.75,28854,20.0,74116.0,3.65,-1.29,-3.19,0,*7F
1496938056.96,28855,20.0,74118.0,3.65,-1.33,-3.43,0,*7A
1496938058.21,28856,20.0,74118.0,3.67,-1.33,-3.59,0,*70
1496938059.42,28857,20.0,74114.0,3.67,-1.51,-4.05,0,*7B
1496938060.64,28858,20.0,74118.0,3.71,-1.71,-4.41,0,*71
1496938061.88,28859,20.0,74116.5,3.71,-1.99,-4.99,0,*73
1496938063.13,28860,20.0,74118.0,3.73,-2.07,-5.15,0,*7A
1496938064.38,28861,20.0,74114.0,3.71,-2.11,-5.55,0,*7A
1496938065.59,28862,20.0,74114.5,3.73,-2.23,-5.77,0,*7A
1496938066.85,28863,20.0,74118.5,3.75,-2.51,-6.19,0,*73
1496938068.08,28864,20.0,74118.5,3.75,-2.59,-6.51,0,*70
1496938069.28,28865,20.0,74116.8,3.77,-3.07,-7.11,0,*7C
1496938070.46,28866,20.0,74118.0,3.77,-3.31,-7.53,0,*7C
1496938071.68,28867,20.0,74116.8,3.77,-3.43,-7.87,0,*71
1496938072.89,28868,20.0,74120.3,3.77,-3.67,-8.25,0,*7F
1496938074.1,28869,20.0,74118.0,3.75,-3.87,-8.63,0,*70
1496938075.28,28870,20.0,74118.5,3.77,-4.05,-8.97,0,*7C
1496938076.5,28871,20.0,74116.3,3.77,-4.25,-9.53,0,*76
1496938077.7,28872,20.0,74118.0,3.77,-4.61,-10.01,0,*4A
1496938078.91,28873,20.0,74118.3,3.77,-4.69,-10.23,0,*43
1496938080.18,28874,20.0,74116.5,3.79,-5.03,-10.75,0,*44
1496938081.38,28875,20.0,74118.3,3.81,-5.35,-11.23,0,*45
1496938082.64,28876,20.0,74112.8,3.79,-5.73,-11.81,0,*4B
1496938083.91,28877,20.0,74118.8,3.79,-6.19,-12.35,0,*49
1496938085.1,28878,20.0,74116.8,3.81,-6.69,-13.07,0,*46
1496938086.32,28879,20.0,74116.5,3.79,-7.23,-13.55,0,*48
1496938087.51,28880,20.0,74122.5,3.81,-7.87,-14.23,0,*41
1496938088.72,28881,20.0,74116.3,3.79,-8.25,-14.69,0,*4E
1496938089.94,28882,20.0,74120.0,3.81,-8.29,-14.75,0,*4B
1496938091.17,28883,20.0,74118.0,3.79,-8.71,-15.15,0,*47
1496938092.42,28884,20.0,74116.3,3.77,-9.11,-15.57,0,*4F
1496938093.64,28885,20.0,74114.8,3.77,-9.49,-15.75,0,*43
1496938094.83,28886,20.0,74118.0,3.77,-9.67,-15.95,0,*42
1496938096.05,28887,20.0,74116.0,3.75,-9.71,-15.95,0,*46
1496938097.29,28888,20.0,74118.0,3.75,-9.83,-15.95,0,*44
1496938098.52,28889,20.0,74118.8,3.75,-10.35,-16.55,0,*7F
1496938099.77,28890,20.0,74116.3,3.77,-10.63,-16.51,0,*72
1496938101.04,28891,20.0,74116.8,3.75,-11.33,-17.21,0,*73
1496938102.3,28892,20.0,74122.0,3.75,-11.59,-17.35,0,*79
1496938103.54,28893,20.0,74118.8,3.73,-11.77,-17.25,0,*73
1496938104.8,28894,20.0,74118.3,3.73,-11.93,-17.45,0,*78
1496938106.03,28895,20.0,74116.0,3.71,-12.21,-17.49,0,*7D
1496938107.28,28896,20.0,74116.3,3.71,-12.79,-17.73,0,*7A
1496938108.53,28897,20.0,74116.3,3.71,-12.93,-17.79,0,*75
1496938109.78,28898,20.0,74120.3,3.71,-13.19,-17.93,0,*7D
1496938111.04,28899,20.0,74118.0,3.67,-13.37,-17.83,0,*76
1496938112.28,28900,20.0,74116.3,3.65,-13.37,-17.83,0,*75
1496938113.56,28901,20.0,74116.0,3.67,-13.37,-17.63,0,*78
1496938114.79,28902,20.0,74116.0,3.65,-13.55,-17.55,0,*78
1496938116.04,28903,20.0,74112.8,3.67,-13.69,-17.63,0,*71
1496938117.27,28904,20.0,74116.3,3.65,-13.83,-17.69,0,*7A
1496938118.48,28905,20.0,74114.3,3.65,-13.69,-17.31,0,*72
1496938119.68,28906,20.0,74118.0,3.65,-13.69,-17.31,0,*71